This demonstration page uses our WeatherBlox Daily Observations layout. Learn more.

36.19886, -115.1175

Hourly Observations for July 4, 2019

Temp ( °F °C ) Dew Point ( °F °C ) Humidity (%) Winds ( mph kmh ) Pressure ( in mb ) Visibility ( mi km ) Precip ( " mm )
12:53 am 00:53 Clear 84 28.9 27 -2.8 12 12 S 13 20 29.68 1005 10 16.09344 0 0
1:53 am 01:53 Clear 83 28.3 29 -1.7 14 14 SSW 13 20 29.68 1005 10 16.09344 0 0
2:53 am 02:53 Clear 82 27.8 29 -1.7 14 14 SSE 8 13 29.71 1006 10 16.09344 0 0
3:53 am 03:53 Clear 79 26.1 30 -1.1 17 17 SSE 10 17 29.71 1006 10 16.09344 0 0
4:53 am 04:53 Clear 78 25.6 31 -0.6 18 18 SSE 13 20 29.71 1006 10 16.09344 0 0
5:53 am 05:53 Sunny 77 25 31 -0.6 18 18 S 10 17 29.74 1007 10 16.09344 0 0
6:53 am 06:53 Sunny 79 26.1 31 -0.6 17 17 SSE 6 9 29.77 1008 10 16.09344 0 0
7:53 am 07:53 Sunny 81 27.2 30 -1.1 16 16 S 7 11 29.77 1008 10 16.09344 0 0
8:53 am 08:53 Sunny 84 28.9 28 -2.2 13 13 S 5 7 29.8 1009 10 16.09344 0 0
9:53 am 09:53 Sunny 87 30.6 26 -3.3 11 11 VRB 6 9 29.8 1009 10 16.09344 0 0
10:53 am 10:53 Sunny 90 32.2 22 -5.6 8 8 VRB 5 7 29.8 1009 10 16.09344 0 0
11:53 am 11:53 Sunny 94 34.4 26 -3.3 9 9 S 14 22 29.77 1008 10 16.09344 0 0
12:53 pm 12:53 Sunny 96 35.6 27 -2.8 8 8 SW 16 26 29.74 1007 10 16.09344 0 0
1:53 pm 13:53 Sunny 98 36.7 21 -6.1 6 6 SW 16 26 29.74 1007 10 16.09344 0 0
2:53 pm 14:53 Sunny 99 37.2 13 -10.6 4 4 WSW 14 22 29.71 1006 10 16.09344 0 0
3:00 pm 15:00 Sunny 99 37.2 12 -11.1 4 4 SW 15 24 29.56 1001 10 16.09344 0 0
3:53 pm 15:53 Sunny 98 36.7 9 -12.8 4 4 SSW 13 20 29.71 1006 10 16.09344 0 0
4:53 pm 16:53 Sunny 98 36.7 14 -10 4 4 S 10 17 29.71 1006 10 16.09344 0 0
5:53 pm 17:53 Sunny 98 36.7 20 -6.7 6 6 S 14 22 29.71 1006 10 16.09344 0 0
6:53 pm 18:53 Sunny 97 36.1 23 -5 7 7 SW 14 22 29.71 1006 10 16.09344 0 0
7:53 pm 19:53 Sunny 95 35 26 -3.3 8 8 SW 9 15 29.74 1007 10 16.09344 0 0
8:53 pm 20:53 Clear 93 33.9 28 -2.2 10 10 SW 7 11 29.74 1007 10 16.09344 0 0
9:53 pm 21:53 Clear 90 32.2 29 -1.7 11 11 SSW 9 15 29.77 1008 9 14.484096 0 0
10:53 pm 22:53 Clear 87 30.6 30 -1.1 13 13 S 10 17 29.8 1009 10 16.09344 0 0
11:53 pm 23:53 Clear 87 30.6 29 -1.7 12 12 SSW 8 13 29.8 1009 10 16.09344 0 0

Powered by AerisWeather